EN

Hourly Weather Palczyn

Today, 3 March, Wednesday

Time Temperature Precipitation Wind Pressure Humidity
00:00 +2°C° 0 mm 0 mps 766 mmHg 88%
01:00 +2°C° 0 mm 0 mps 766 mmHg 90%
02:00 +2°C° 0 mm 0 mps 765 mmHg 90%
03:00 +2°C° 0 mm 1 mps 765 mmHg 90%
04:00 +2°C° 0 mm 1 mps 765 mmHg 90%
05:00 +2°C° 0 mm 1 mps 764 mmHg 90%
06:00 +2°C° 0 mm 1 mps 764 mmHg 90%
07:00 +2°C° 0 mm 1 mps 764 mmHg 92%
08:00 +4°C° 0 mm 1 mps 764 mmHg 84%
09:00 +5°C° 0 mm 2 mps 764 mmHg 77%
10:00 +6°C° 0 mm 2 mps 763 mmHg 70%
11:00 +8°C° 0 mm 2 mps 763 mmHg 66%
12:00 +9°C° 0 mm 2 mps 762 mmHg 63%
13:00 +10°C° 0 mm 3 mps 762 mmHg 60%
14:00 +10°C° 0 mm 3 mps 761 mmHg 62%
15:00 +10°C° 0 mm 3 mps 760 mmHg 63%
16:00 +10°C° 0 mm 3 mps 759 mmHg 64%
17:00 +8°C° 0 mm 3 mps 759 mmHg 69%
18:00 +7°C° 0 mm 3 mps 758 mmHg 74%
19:00 +5°C° 0 mm 3 mps 758 mmHg 78%
20:00 +4°C° 0 mm 3 mps 757 mmHg 81%
21:00 +4°C° 0 mm 3 mps 757 mmHg 84%
22:00 +3°C° 0 mm 3 mps 756 mmHg 87%
23:00 +3°C° 0 mm 3 mps 755 mmHg 88%

Tomorrow, 4 March, Thursday

Time Temperature Precipitation Wind Pressure Humidity
00:00 +3°C° 0 mm 3 mps 755 mmHg 89%
01:00 +3°C° 0 mm 3 mps 754 mmHg 90%
02:00 +3°C° 0 mm 4 mps 754 mmHg 91%
03:00 +4°C° 0 mm 4 mps 753 mmHg 92%
04:00 +3°C° 0 mm 5 mps 753 mmHg 93%
05:00 +3°C° 0 mm 5 mps 752 mmHg 92%
06:00 +3°C° 0 mm 5 mps 752 mmHg 91%
07:00 +3°C° 0 mm 5 mps 752 mmHg 90%
08:00 +3°C° 0 mm 5 mps 752 mmHg 88%
09:00 +2°C° 0 mm 5 mps 752 mmHg 85%
10:00 +2°C° 0 mm 5 mps 752 mmHg 82%
11:00 +2°C° 0 mm 5 mps 752 mmHg 81%
12:00 +2°C° 0 mm 5 mps 752 mmHg 80%
13:00 +1°C° 0 mm 5 mps 752 mmHg 79%
14:00 +1°C° 0 mm 5 mps 751 mmHg 79%
15:00 +1°C° 0 mm 4 mps 751 mmHg 79%
16:00 +1°C° 0 mm 4 mps 751 mmHg 79%
17:00 0°C° 0 mm 4 mps 751 mmHg 84%
18:00 0°C° 0 mm 4 mps 752 mmHg 89%
19:00 +1°C° 0 mm 3 mps 752 mmHg 94%
20:00 -1°C° 0.1 mm 4 mps 752 mmHg 93%
21:00 -2°C° 0.1 mm 4 mps 752 mmHg 91%
22:00 -2°C° 0.1 mm 4 mps 753 mmHg 90%
23:00 -3°C° 0 mm 4 mps 753 mmHg 89%

Day after tomorrow, 5 March, Friday

Time Temperature Precipitation Wind Pressure Humidity
00:00 -2°C° 0 mm 3 mps 753 mmHg 88%
01:00 -2°C° 0 mm 3 mps 754 mmHg 87%
02:00 -4°C° 0 mm 3 mps 754 mmHg 86%
03:00 -4°C° 0 mm 3 mps 754 mmHg 85%
04:00 -4°C° 0 mm 3 mps 754 mmHg 85%
05:00 -4°C° 0 mm 3 mps 755 mmHg 83%
06:00 -4°C° 0 mm 3 mps 755 mmHg 81%
07:00 -4°C° 0 mm 3 mps 756 mmHg 79%
08:00 -1°C° 0 mm 3 mps 756 mmHg 69%
09:00 -1°C° 0 mm 4 mps 757 mmHg 59%
10:00 +1°C° 0 mm 4 mps 757 mmHg 49%
11:00 +1°C° 0.1 mm 4 mps 757 mmHg 47%
12:00 +1°C° 0.1 mm 5 mps 758 mmHg 44%
13:00 +2°C° 0.1 mm 5 mps 758 mmHg 42%
14:00 +1°C° 0.2 mm 4 mps 758 mmHg 45%
15:00 +1°C° 0.2 mm 4 mps 758 mmHg 48%
16:00 +1°C° 0.2 mm 4 mps 759 mmHg 51%
17:00 0°C° 0.1 mm 3 mps 759 mmHg 57%
18:00 -1°C° 0.1 mm 2 mps 760 mmHg 62%
19:00 0°C° 0.1 mm 1 mps 760 mmHg 68%
20:00 0°C° 0 mm 1 mps 761 mmHg 69%
21:00 -1°C° 0 mm 1 mps 761 mmHg 69%
22:00 -1°C° 0 mm 1 mps 762 mmHg 70%
23:00 -1°C° 0 mm 1 mps 762 mmHg 71%

6 March, Saturday

Time Temperature Precipitation Wind Pressure Humidity
00:00 -1°C° 0 mm 1 mps 763 mmHg 71%
01:00 -3°C° 0 mm 2 mps 763 mmHg 72%
02:00 -3°C° 0 mm 2 mps 763 mmHg 73%
03:00 -3°C° 0 mm 2 mps 763 mmHg 75%
04:00 -3°C° 0 mm 2 mps 763 mmHg 77%
05:00 -3°C° 0 mm 2 mps 764 mmHg 77%
06:00 -3°C° 0 mm 2 mps 764 mmHg 76%
07:00 -4°C° 0 mm 3 mps 764 mmHg 76%
08:00 -2°C° 0 mm 3 mps 764 mmHg 66%
09:00 0°C° 0 mm 3 mps 764 mmHg 56%
10:00 +1°C° 0 mm 3 mps 764 mmHg 47%
11:00 +1°C° 0 mm 4 mps 764 mmHg 45%
12:00 +1°C° 0 mm 4 mps 764 mmHg 42%
13:00 +2°C° 0 mm 5 mps 764 mmHg 40%
14:00 +2°C° 0 mm 5 mps 764 mmHg 41%
15:00 +2°C° 0 mm 5 mps 763 mmHg 43%
16:00 +1°C° 0 mm 5 mps 763 mmHg 44%
17:00 0°C° 0 mm 5 mps 762 mmHg 47%
18:00 -1°C° 0 mm 5 mps 762 mmHg 51%
19:00 -2°C° 0 mm 5 mps 762 mmHg 55%
20:00 -2°C° 0 mm 5 mps 761 mmHg 56%
21:00 -3°C° 0 mm 6 mps 761 mmHg 57%
22:00 -3°C° 0 mm 6 mps 761 mmHg 57%
23:00 -3°C° 0 mm 6 mps 760 mmHg 63%

7 March, Sunday

Time Temperature Precipitation Wind Pressure Humidity
00:00 -3°C° 0 mm 7 mps 760 mmHg 68%
01:00 -3°C° 0 mm 7 mps 759 mmHg 74%
02:00 -3°C° 0 mm 7 mps 759 mmHg 75%
03:00 -2°C° 0 mm 7 mps 758 mmHg 76%
04:00 -2°C° 0 mm 7 mps 758 mmHg 77%
05:00 -2°C° 0 mm 7 mps 757 mmHg 77%
06:00 -3°C° 0 mm 7 mps 757 mmHg 78%
07:00 -3°C° 0 mm 7 mps 757 mmHg 79%
08:00 -3°C° 0 mm 7 mps 756 mmHg 79%
09:00 -3°C° 0 mm 7 mps 756 mmHg 80%
10:00 -3°C° 0 mm 7 mps 756 mmHg 80%
11:00 -2°C° 0 mm 7 mps 756 mmHg 78%
12:00 -2°C° 0 mm 8 mps 756 mmHg 76%
13:00 -1°C° 0 mm 8 mps 756 mmHg 73%
14:00 -1°C° 0 mm 7 mps 755 mmHg 74%
15:00 -1°C° 0 mm 7 mps 755 mmHg 75%
16:00 -1°C° 0 mm 7 mps 754 mmHg 76%
17:00 -2°C° 0 mm 6 mps 754 mmHg 79%
18:00 -2°C° 0 mm 6 mps 754 mmHg 82%
19:00 -2°C° 0 mm 6 mps 754 mmHg 85%
20:00 -2°C° 0 mm 6 mps 754 mmHg 86%
21:00 -2°C° 0 mm 6 mps 754 mmHg 86%
22:00 -3°C° 0 mm 6 mps 754 mmHg 87%
23:00 -3°C° 0 mm 6 mps 754 mmHg 88%

8 March, Monday

Time Temperature Precipitation Wind Pressure Humidity
00:00 -2°C° 0 mm 5 mps 754 mmHg 90%
01:00 -2°C° 0 mm 5 mps 753 mmHg 91%
02:00 -2°C° 0.3 mm 5 mps 753 mmHg 92%
03:00 -2°C° 0.3 mm 5 mps 753 mmHg 94%
04:00 -4°C° 0.3 mm 5 mps 753 mmHg 95%
05:00 -3°C° 0.1 mm 4 mps 754 mmHg 93%
06:00 -4°C° 0.1 mm 4 mps 754 mmHg 91%
07:00 -5°C° 0.1 mm 3 mps 755 mmHg 89%
08:00 -2°C° 0 mm 3 mps 755 mmHg 77%
09:00 -1°C° 0 mm 3 mps 756 mmHg 65%
10:00 0°C° 0 mm 3 mps 757 mmHg 54%
11:00 +1°C° 0 mm 3 mps 757 mmHg 53%
12:00 +1°C° 0 mm 3 mps 757 mmHg 52%
13:00 +2°C° 0 mm 3 mps 758 mmHg 51%
14:00 +1°C° 0 mm 3 mps 758 mmHg 55%
15:00 0°C° 0 mm 4 mps 758 mmHg 58%
16:00 -1°C° 0 mm 4 mps 758 mmHg 62%
17:00 -2°C° 0 mm 4 mps 759 mmHg 67%
18:00 -2°C° 0 mm 3 mps 759 mmHg 73%
19:00 -5°C° 0 mm 3 mps 760 mmHg 78%
20:00 -5°C° 0 mm 3 mps 760 mmHg 79%
21:00 -5°C° 0 mm 2 mps 761 mmHg 80%
22:00 -5°C° 0 mm 2 mps 761 mmHg 80%
23:00 -5°C° 0 mm 2 mps 761 mmHg 80%
Show more

We Need Your Consent

Meteoprog and our Service Providers may store and access personal data such as cookies, device identifiers or other similar technologies on your device and process such data to personalise content and ads, as well as provide social media features and to analyse the traffic.

  • Store and/or access information on your device

    Cookies, device identifiers or other information can be stored or accessed on your device for the purposes indicated above.

  • Personalised ads and content, ad and content measurement, audience insights, and products development

    Ads and content can be personalised based on a profile. More data can be added to better personalise ads and content. Ad and content performance can be measured. Insights about the audience who saw the ads and content can be derived. Such data can be used to develop or improve user’s experience, systems and software.

By clicking ‘I Agree’ you will allow the use of indicated cookies, device identifiers, web beacons or other similar technologies. Your settings can be changed in the browser on your device.

For certain purposes, legitimate interests may be relied on, rather than consent. You can read more about this in our Privacy and Cookie Policy.